Location: Chavannes
(47.1090°N, 0.2226°W)
Time: 14:03:19
(UTC+00:00)

Cosmos 1703 - Pass Details

Date: 16 October 2021
Orbit: 521 x 539 km, 82.5° (Epoch: 03 December)

Event Time Altitude Azimuth Distance (km) Brightness Sun altitude
Rises 18:00:43 0° 358° (N) 2,701 6.8 -9.1°
Reaches altitude 10° 18:03:01 10° 7° (N) 1,801 5.8 -9.5°
Maximum altitude 18:06:41 36° 75° (ENE) 863 3.8 -10.1°
Drops below altitude 10° 18:10:18 10° 143° (SE) 1,777 5.6 -10.8°
Sets 18:12:34 0° 152° (SSE) 2,658 6.5 -11.1°
